HVN1340 VVTS-VVCR

Flight info

Callsign HVN1340
Flight time 0h 38m
Altitude 27000
Route BIXEX5R BIXEX W15 BANKE BANKE1A
Aircraft A321/M-SDE3FGHIRWY/LB1

Departure

Time 2026-05-07 10:45
Airport Tan Son Nhat International Airport (VVTS)

Arrival

Time 2026-05-07 11:23
Airport Cam Ranh International Airport / Cam Ranh Air Base (VVCR)
Time Latitude Longitude Altitude Speed Heading
2026-05-07 10:33 10.81341 106.65170 37 ft 0 kts 339°
2026-05-07 10:39 10.81346 106.65168 37 ft 2 kts 339°
2026-05-07 10:39 10.81382 106.65159 37 ft 7 kts
2026-05-07 10:39 10.81421 106.65209 37 ft 13 kts 67°
2026-05-07 10:40 10.81462 106.65317 37 ft 20 kts 69°
2026-05-07 10:40 10.81514 106.65456 37 ft 22 kts 69°
2026-05-07 10:40 10.81570 106.65604 37 ft 23 kts 69°
2026-05-07 10:40 10.81630 106.65757 36 ft 24 kts 68°
2026-05-07 10:41 10.81694 106.65799 33 ft 13 kts 343°
2026-05-07 10:41 10.81768 106.65831 34 ft 13 kts 58°
2026-05-07 10:41 10.81808 106.65932 37 ft 19 kts 69°
2026-05-07 10:41 10.81867 106.66089 34 ft 28 kts 69°
2026-05-07 10:42 10.81937 106.66274 37 ft 28 kts 69°
2026-05-07 10:42 10.82008 106.66463 35 ft 29 kts 69°
2026-05-07 10:42 10.82081 106.66656 34 ft 29 kts 69°
2026-05-07 10:42 10.82156 106.66852 30 ft 30 kts 69°
2026-05-07 10:43 10.82206 106.66986 35 ft 10 kts 63°
2026-05-07 10:43 10.82267 106.67004 35 ft 11 kts 345°
2026-05-07 10:43 10.82334 106.66958 35 ft 13 kts 310°
2026-05-07 10:43 10.82341 106.66873 34 ft 14 kts 252°
2026-05-07 10:44 10.82305 106.66780 33 ft 22 kts 248°
2026-05-07 10:44 10.82156 106.66385 33 ft 98 kts 249°
2026-05-07 10:44 10.81831 106.65526 35 ft 160 kts 249°
2026-05-07 10:44 10.81376 106.64345 312 ft 185 kts 246°
2026-05-07 10:45 10.80899 106.63125 1051 ft 188 kts 244°
2026-05-07 10:45 10.80412 106.61859 1528 ft 200 kts 244°
2026-05-07 10:45 10.79885 106.60465 1705 ft 223 kts 248°
2026-05-07 10:45 10.79580 106.58830 1861 ft 250 kts 267°
2026-05-07 10:46 10.79847 106.57034 2374 ft 264 kts 288°
2026-05-07 10:46 10.80708 106.55365 3057 ft 269 kts 308°
2026-05-07 10:46 10.82070 106.54079 3885 ft 266 kts 329°
2026-05-07 10:46 10.83750 106.53342 4714 ft 263 kts 349°
2026-05-07 10:47 10.85563 106.53226 5464 ft 261 kts
2026-05-07 10:47 10.87314 106.53736 6103 ft 267 kts 27°
2026-05-07 10:47 10.88870 106.54883 6329 ft 288 kts 49°
2026-05-07 10:47 10.89961 106.56635 6501 ft 309 kts 70°
2026-05-07 10:48 10.90333 106.58852 6654 ft 330 kts 93°
2026-05-07 10:48 10.90063 106.61201 7090 ft 338 kts 97°
2026-05-07 10:48 10.89750 106.63586 7676 ft 341 kts 97°
2026-05-07 10:48 10.89441 106.65987 8298 ft 344 kts 97°
2026-05-07 10:49 10.89133 106.68408 8918 ft 346 kts 97°
2026-05-07 10:49 10.88824 106.70848 9521 ft 349 kts 97°
2026-05-07 10:49 10.88584 106.73308 10040 ft 352 kts 90°
2026-05-07 10:49 10.88648 106.75804 10557 ft 354 kts 88°
2026-05-07 10:50 10.88726 106.78315 11104 ft 356 kts 88°
2026-05-07 10:50 10.88805 106.80841 11635 ft 358 kts 88°
2026-05-07 10:50 10.88883 106.83385 12156 ft 361 kts 88°
2026-05-07 10:50 10.88960 106.85948 12672 ft 364 kts 88°
2026-05-07 10:51 10.89036 106.88529 13174 ft 366 kts 88°
2026-05-07 10:51 10.89113 106.91133 13674 ft 369 kts 88°
2026-05-07 10:51 10.89185 106.93754 14099 ft 372 kts 88°
2026-05-07 10:51 10.89255 106.96356 14517 ft 374 kts 88°
2026-05-07 10:52 10.89327 106.99009 14935 ft 376 kts 88°
2026-05-07 10:52 10.89415 107.01677 15350 ft 379 kts 85°
2026-05-07 10:52 10.89925 107.04317 15749 ft 382 kts 72°
2026-05-07 10:52 10.91055 107.06774 16142 ft 387 kts 58°
2026-05-07 10:53 10.92757 107.08906 16550 ft 392 kts 45°
2026-05-07 10:53 10.94942 107.10581 16943 ft 397 kts 33°
2026-05-07 10:53 10.97319 107.12029 17332 ft 399 kts 33°
2026-05-07 10:53 10.99709 107.13490 17714 ft 402 kts 33°
2026-05-07 10:54 11.02106 107.14965 18077 ft 405 kts 33°
2026-05-07 10:54 11.04521 107.16453 18389 ft 407 kts 33°
2026-05-07 10:54 11.06952 107.17950 18709 ft 409 kts 33°
2026-05-07 10:54 11.09394 107.19453 19040 ft 411 kts 33°
2026-05-07 10:55 11.11849 107.20965 19366 ft 413 kts 33°
2026-05-07 10:55 11.14211 107.22635 19674 ft 414 kts 41°
2026-05-07 10:55 11.16239 107.24714 19980 ft 414 kts 52°
2026-05-07 10:55 11.17861 107.27139 20286 ft 414 kts 62°
2026-05-07 10:56 11.19162 107.29761 20580 ft 416 kts 64°
2026-05-07 10:56 11.20443 107.32370 20892 ft 418 kts 64°
2026-05-07 10:56 11.21751 107.35023 21206 ft 420 kts 64°
2026-05-07 10:56 11.23068 107.37691 21506 ft 422 kts 64°
2026-05-07 10:57 11.24389 107.40370 21813 ft 424 kts 64°
2026-05-07 10:57 11.25713 107.43061 22117 ft 426 kts 64°
2026-05-07 10:57 11.27041 107.45765 22461 ft 427 kts 64°
2026-05-07 10:57 11.28371 107.48480 22758 ft 429 kts 65°
2026-05-07 10:58 11.29708 107.51207 23043 ft 431 kts 64°
2026-05-07 10:58 11.31052 107.53945 23338 ft 433 kts 64°
2026-05-07 10:58 11.32408 107.56703 23545 ft 436 kts 65°
2026-05-07 10:58 11.33769 107.59471 23778 ft 438 kts 64°
2026-05-07 10:59 11.35134 107.62253 24002 ft 440 kts 64°
2026-05-07 10:59 11.36503 107.65050 24256 ft 441 kts 64°
2026-05-07 10:59 11.37877 107.67858 24458 ft 444 kts 65°
2026-05-07 10:59 11.39260 107.70677 24685 ft 445 kts 64°
2026-05-07 11:00 11.40650 107.73510 24896 ft 448 kts 64°
2026-05-07 11:00 11.42046 107.76357 25137 ft 449 kts 64°
2026-05-07 11:00 11.43444 107.79215 25367 ft 451 kts 64°
2026-05-07 11:00 11.44826 107.82042 25576 ft 453 kts 65°
2026-05-07 11:01 11.46234 107.84920 25805 ft 455 kts 64°
2026-05-07 11:01 11.47652 107.87818 26021 ft 457 kts 64°
2026-05-07 11:01 11.49073 107.90724 26242 ft 459 kts 64°
2026-05-07 11:01 11.50505 107.93650 26445 ft 461 kts 64°
2026-05-07 11:02 11.51943 107.96594 26657 ft 463 kts 64°
2026-05-07 11:02 11.53383 107.99541 26823 ft 465 kts 65°
2026-05-07 11:02 11.54803 108.02449 26855 ft 462 kts 64°
2026-05-07 11:02 11.56232 108.05376 26857 ft 461 kts 64°
2026-05-07 11:03 11.57660 108.08303 26857 ft 460 kts 64°
2026-05-07 11:03 11.59085 108.11232 26856 ft 460 kts 64°
2026-05-07 11:03 11.60582 108.14114 26866 ft 461 kts 59°
2026-05-07 11:03 11.62402 108.16806 26868 ft 461 kts 55°
2026-05-07 11:04 11.64261 108.19472 26870 ft 461 kts 55°
2026-05-07 11:04 11.66122 108.22140 26871 ft 461 kts 56°
2026-05-07 11:04 11.67983 108.24813 26616 ft 461 kts 55°
2026-05-07 11:04 11.69848 108.27491 25682 ft 464 kts 56°
2026-05-07 11:05 11.71707 108.30164 25032 ft 459 kts 55°
2026-05-07 11:05 11.73545 108.32810 24378 ft 455 kts 56°
2026-05-07 11:05 11.75144 108.35570 23718 ft 450 kts 65°
2026-05-07 11:05 11.76260 108.38533 22996 ft 444 kts 74°
2026-05-07 11:06 11.77086 108.41548 22344 ft 437 kts 75°
2026-05-07 11:06 11.77907 108.44511 21716 ft 431 kts 75°
2026-05-07 11:06 11.78727 108.47427 21092 ft 424 kts 74°
2026-05-07 11:06 11.79537 108.50293 20488 ft 418 kts 75°
2026-05-07 11:07 11.80325 108.53088 19918 ft 412 kts 75°
2026-05-07 11:07 11.81110 108.55883 19358 ft 407 kts 75°
2026-05-07 11:07 11.81881 108.58644 18802 ft 402 kts 75°
2026-05-07 11:07 11.82639 108.61375 18276 ft 397 kts 75°
2026-05-07 11:08 11.83387 108.64068 17716 ft 392 kts 75°
2026-05-07 11:08 11.84129 108.66718 17192 ft 385 kts 75°
2026-05-07 11:08 11.84867 108.69330 16690 ft 379 kts 75°
2026-05-07 11:08 11.85595 108.71901 16142 ft 374 kts 75°
2026-05-07 11:09 11.86313 108.74432 15617 ft 368 kts 75°
2026-05-07 11:09 11.87021 108.76931 15080 ft 364 kts 75°
2026-05-07 11:09 11.87718 108.79402 14541 ft 360 kts 75°
2026-05-07 11:09 11.88407 108.81849 14000 ft 357 kts 75°
2026-05-07 11:10 11.89082 108.84243 13751 ft 345 kts 75°
2026-05-07 11:10 11.89721 108.86576 13282 ft 338 kts 77°
2026-05-07 11:10 11.90150 108.88926 12710 ft 336 kts 80°
2026-05-07 11:10 11.90550 108.91252 12394 ft 327 kts 80°
2026-05-07 11:11 11.90937 108.93509 12034 ft 320 kts 80°
2026-05-07 11:11 11.91319 108.95731 11645 ft 314 kts 80°
2026-05-07 11:11 11.91691 108.97897 11320 ft 306 kts 80°
2026-05-07 11:11 11.92056 109.00022 10928 ft 303 kts 80°
2026-05-07 11:12 11.92419 109.02133 10496 ft 302 kts 80°
2026-05-07 11:12 11.92778 109.04228 10217 ft 296 kts 80°
2026-05-07 11:12 11.93124 109.06244 10004 ft 288 kts 80°
2026-05-07 11:12 11.93470 109.08250 9938 ft 288 kts 80°
2026-05-07 11:13 11.93819 109.10270 9812 ft 289 kts 80°
2026-05-07 11:13 11.94164 109.12285 9509 ft 285 kts 80°
2026-05-07 11:13 11.94502 109.14270 9358 ft 284 kts 80°
2026-05-07 11:13 11.94843 109.16268 9133 ft 285 kts 80°
2026-05-07 11:14 11.95181 109.18250 8870 ft 282 kts 80°
2026-05-07 11:14 11.95497 109.20228 8624 ft 282 kts 84°
2026-05-07 11:14 11.95421 109.22228 8367 ft 284 kts 99°
2026-05-07 11:14 11.94850 109.24151 8086 ft 283 kts 109°
2026-05-07 11:15 11.94171 109.26032 7799 ft 281 kts 108°
2026-05-07 11:15 11.93500 109.27911 7521 ft 282 kts 108°
2026-05-07 11:15 11.92827 109.29788 7253 ft 282 kts 110°
2026-05-07 11:15 11.91769 109.31459 6978 ft 285 kts 136°
2026-05-07 11:16 11.90027 109.32398 6699 ft 288 kts 167°
2026-05-07 11:16 11.88049 109.32321 6391 ft 288 kts 197°
2026-05-07 11:16 11.86149 109.31639 6071 ft 290 kts 200°
2026-05-07 11:16 11.84287 109.30945 5921 ft 279 kts 200°
2026-05-07 11:17 11.82509 109.30247 5751 ft 270 kts 207°
2026-05-07 11:17 11.81067 109.29073 5479 ft 264 kts 232°
2026-05-07 11:17 11.80239 109.27427 5122 ft 261 kts 258°
2026-05-07 11:17 11.80142 109.25611 4768 ft 255 kts 282°
2026-05-07 11:18 11.80718 109.23908 4217 ft 259 kts 299°
2026-05-07 11:18 11.81527 109.22242 3598 ft 262 kts 298°
2026-05-07 11:18 11.82052 109.21150 3382 ft 253 kts 298°
2026-05-07 11:18 11.82794 109.19589 3212 ft 238 kts 299°
2026-05-07 11:19 11.83633 109.18167 3103 ft 228 kts 319°
2026-05-07 11:19 11.84949 109.17438 2977 ft 211 kts 353°
2026-05-07 11:19 11.86365 109.17557 2754 ft 204 kts 20°
2026-05-07 11:19 11.87693 109.18019 2485 ft 198 kts 20°
2026-05-07 11:20 11.88969 109.18468 2198 ft 188 kts 21°
2026-05-07 11:20 11.90155 109.18881 1920 ft 173 kts 20°
2026-05-07 11:20 11.91249 109.19260 1672 ft 159 kts 21°
2026-05-07 11:20 11.92265 109.19612 1432 ft 151 kts 20°
2026-05-07 11:21 11.93247 109.19952 1238 ft 145 kts 21°
2026-05-07 11:21 11.94176 109.20274 1009 ft 139 kts 20°
2026-05-07 11:21 11.95093 109.20593 824 ft 139 kts 22°
2026-05-07 11:21 11.96004 109.20909 599 ft 137 kts 22°
2026-05-07 11:22 11.96917 109.21216 365 ft 138 kts 22°
2026-05-07 11:22 11.97823 109.21533 166 ft 139 kts 21°
2026-05-07 11:22 11.98711 109.21842 56 ft 128 kts 23°
2026-05-07 11:22 11.99417 109.22094 52 ft 83 kts 18°
2026-05-07 11:23 11.99789 109.22221 52 ft 35 kts 19°
2026-05-07 11:23 11.99917 109.22215 51 ft 17 kts 307°
2026-05-07 11:23 11.99958 109.22101 53 ft 17 kts 289°
2026-05-07 11:23 11.99999 109.21981 53 ft 18 kts 289°
2026-05-07 11:24 12.00041 109.21855 53 ft 18 kts 289°
2026-05-07 11:24 12.00070 109.21769 53 ft 12 kts 289°
2026-05-07 11:24 12.00108 109.21663 53 ft 13 kts 299°
2026-05-07 11:24 12.00192 109.21654 53 ft 14 kts 20°
2026-05-07 11:25 12.00288 109.21687 53 ft 15 kts 18°
2026-05-07 11:25 12.00395 109.21724 53 ft 17 kts 19°
2026-05-07 11:25 12.00526 109.21770 53 ft 24 kts 19°
2026-05-07 11:25 12.00692 109.21827 53 ft 26 kts 19°
2026-05-07 11:26 12.00838 109.21859 53 ft 15 kts 326°
2026-05-07 11:26 12.00938 109.21842 53 ft 16 kts 18°
2026-05-07 11:26 12.00995 109.21831 53 ft 8 kts 302°
2026-05-07 11:26 12.01011 109.21785 53 ft 6 kts 288°
2026-05-07 11:27 12.01018 109.21763 51 ft 1 kts 289°